Tracking 23583 objects as of 28-Jul-2021
HD Live streaming from Space Station
objects crossing your sky now

BEIDOU 2 G8

Track BEIDOU 2 G8 now!
BEIDOU 2 G8 is classified as:


NORAD ID: 44231
Int'l Code: 2019-027A
Perigee: 35,766.4 km
Apogee: 35,823.4 km
Inclination: 0.3 °
Period: 1,436.2 minutes
Semi major axis: 42165 km
RCS: Unknown
Launch date: May 17, 2019
Source: People's Republic of China (PRC)
Launch site: Xichang Space Center, China (XSC)
aabbcc
Your satellite tracking list
Your tracking list is empty




NASA's NSSDC Master Catalog

Two Line Element Set (TLE):
1 44231U 19027A   21209.57248682 -.00000259  00000-0  00000-0 0  9996
2 44231   0.2568  10.7759 0006757 174.5514 111.6737  1.00267755  8173
Source of the keplerian elements: AFSPC